This demonstration page uses our WeatherBlox Daily Observations layout. Learn more.

Hourly Observations for July 5, 2017

Temp ( °F °C ) Dew Point ( °F °C ) Humidity (%) Winds ( mph kmh ) Pressure ( in mb ) Visibility ( mi km ) Precip ( " mm )
12:10 am 00:10 Hazy 70 21.1 65 18.3 84 84 SSE 5 7 30.06 1018 2.5 4.02335 0 0
12:26 am 00:26 Hazy 70 21.1 65 18.3 84 84 S 5 7 30.06 1018 4 6.43736 0 0
12:54 am 00:54 Hazy 69 20.6 64 17.8 84 84 S 6 9 30.05 1018 6 9.65604 0 0
1:54 am 01:54 Clear 66 18.9 63 17.2 90 90 SSE 5 7 30.04 1017 7 11.26538 0 0
2:54 am 02:54 Clear 67 19.4 63 17.2 87 87 SSE 3 6 30.04 1017 10 16.0934 0 0
3:54 am 03:54 Clear 64 17.8 61 16.1 90 90 Calm 30.04 1017 9 14.48406 0 0
4:54 am 04:54 Clear 62 16.7 60 15.6 93 93 Calm 30.04 1017 8 12.87472 0 0
5:54 am 05:54 Clear 62 16.7 60 15.6 93 93 Calm 30.06 1018 8 12.87472 0 0
6:54 am 06:54 Sunny 64 17.8 62 16.7 93 93 Calm 30.07 1018 8 12.87472 0 0
7:54 am 07:54 Sunny 69 20.6 65 18.3 87 87 Calm 30.08 1019 9 14.48406 0 0
8:54 am 08:54 Sunny 73 22.8 65 18.3 76 76 W 3 6 30.09 1019 10 16.0934 0 0
9:54 am 09:54 Sunny 77 25 67 19.4 71 71 VRB 5 7 30.09 1019 10 16.0934 0 0
10:54 am 10:54 Sunny 80 26.7 66 18.9 62 62 Calm 30.09 1019 10 16.0934 0 0
11:54 am 11:54 Sunny 82 27.8 67 19.4 60 60 SW 7 11 30.1 1019 10 16.0934 0 0
12:54 pm 12:54 Sunny 83 28.3 66 18.9 57 57 S 5 7 30.09 1019 10 16.0934 0 0
1:54 pm 13:54 Sunny 85 29.4 62 16.7 46 46 SW 7 11 30.08 1019 10 16.0934 0 0
2:54 pm 14:54 Sunny 86 30 63 17.2 46 46 SW 7 11 30.06 1018 10 16.0934 0 0
3:54 pm 15:54 Sunny 88 31.1 62 16.7 42 42 VRB 3 6 30.06 1018 10 16.0934 0 0
4:54 pm 16:54 Sunny 88 31.1 63 17.2 43 43 VRB 6 9 30.04 1017 10 16.0934 0 0
5:54 pm 17:54 Sunny 87 30.6 63 17.2 45 45 SW 5 7 30.02 1017 10 16.0934 0 0
6:54 pm 18:54 Sunny 86 30 64 17.8 48 48 SSW 8 13 30.02 1017 10 16.0934 0 0
7:54 pm 19:54 Sunny 84 28.9 65 18.3 53 53 SSW 6 9 30.01 1016 10 16.0934 0 0
8:54 pm 20:54 Sunny 81 27.2 65 18.3 58 58 S 6 9 30.01 1016 10 16.0934 0 0
9:54 pm 21:54 Clear 78 25.6 65 18.3 64 64 S 6 9 30.02 1017 10 16.0934 0 0
10:54 pm 22:54 Clear 73 22.8 66 18.9 79 79 SSE 6 9 30.03 1017 10 16.0934 0 0
11:54 pm 23:54 Clear 71 21.7 66 18.9 84 84 S 6 9 30.04 1017 10 16.0934 0 0

Powered by AerisWeather